Regional Weather Roundup
Issued by NWS

Home | Current Version | Previous Version | Graphics & Text | Print | Product List | Glossary On
Versions: 1 2 3 4 5 6 7 8 9 10 11 12 13 14 15 16 17 18 19 20 21 22 23 24 25 26 27 28 29 30 31 32 33 34 35 36 37 38 39 40 41 42 43 44 45 46 47 48 49 50
000
ASUS43 KFSD 291710
RWRSD

WEATHER ROUNDUP FOR SOUTH DAKOTA
NATIONAL WEATHER SERVICE SIOUX FALLS SD
1200 PM CDT TUE JUL 29 2014

NOTE: "FAIR" INDICATES FEW OR NO CLOUDS BELOW 12,000 FEET WITH NO
SIGNIFICANT WEATHER AND/OR OBSTRUCTIONS TO VISIBILITY.


SDZ001>005-009-010-012>017-291800-
NORTHWEST AND NORTH CENTRAL SOUTH DAKOTA

CITY           SKY/WX    TMP DP  RH WIND       PRES   REMARKS
BUFFALO          N/A     77  53  43 S13       30.19S
FAITH            N/A     74  51  44 S7        30.24S
MOBRIDGE       SUNNY     75  52  44 W5        30.20F
$$

SDZ012>016-024>037-041>051-057-063-072>074-291800-
SOUTHWEST AND SOUTH CENTRAL SOUTH DAKOTA

CITY           SKY/WX    TMP DP  RH WIND       PRES   REMARKS
RAPID CTY ARPT CLOUDY    65  56  72 CALM      30.27R
PIERRE         MOSUNNY   76  51  41 NE5       30.21F
CUSTER         CLOUDY    64  54  69 SW5       30.37R
ELLSWORTH AFB  CLOUDY    67  56  67 S3        30.27R
PHILIP         CLOUDY    75  50  41 VRB5      30.23S
PINE RIDGE     CLOUDY    69  59  70 E6        30.25F
WINNER         FAIR      76  53  44 CALM      30.23F
$$

SDZ004>011-016>023-039-040-291800-
NORTHEAST SOUTH DAKOTA

CITY           SKY/WX    TMP DP  RH WIND       PRES   REMARKS
ABERDEEN       MOSUNNY   73  51  46 VRB3      30.21F
WATERTOWN      PTSUNNY   68  51  54 VRB5      30.22S
SISSETON         N/A     73  55  53 N9        30.19F
$$

SDZ017-020-022-023-036>040-048>070-291800-
SOUTHEAST SOUTH DAKOTA

CITY           SKY/WX    TMP DP  RH WIND       PRES   REMARKS
SIOUX FALLS    PTSUNNY   71  52  50 NW7       30.22F
HURON          MOSUNNY   73  54  51 E3        30.21F
CHAMBERLAIN    PTSUNNY   72  52  48 CALM      30.23S
MITCHELL       MOSUNNY   73  53  49 CALM      30.23S
YANKTON        PTSUNNY   70  54  56 NW3       30.23
$$

ABBREVIATIONS USED IN REMARKS
   TC - TEMPERATURE IN CELSIUS
  WCI - WIND CHILL INDEX
   HX - HEAT INDEX
  VSB - VISIBILITY



USA.gov is the U.S. government's official web portal to all federal, state and local government web resources and services.